Home   Weather   Lancy   Past weeks

Flag for Switzerland Past Weather in Lancy, Geneva, Switzerland — Yesterday and Last 2 Weeks

Now
30 °F

Partly sunny.


Feels Like: 25 °F
Forecast: 24 / 39 °F
Wind: 5 mph from Northeast

Location: Geneva Cointrin Airport

Current Time: Jan 23, 2017 at 3:51:33 pm

Latest Report: Jan 23, 2017 at 3:20 pm


Visibility: 4 mi

Pressure: 30.15 "Hg

Humidity: 80%

Dew Point: 25 °F

Location of LancyLocation

Past Weather in Lancy — Graph

°F

Lancy Temperature Yesterday

Maximum temperature yesterday: 28 °F (at 12:20 am)
Minimum temperature yesterday: 27 °F (at 12:50 am)
Average temperature yesterday: 27 °F

High & Low Weather Summary for the Past Weeks

 TemperatureHumidityPressure
High45 °F (Jan 12, 1:50 pm)100% (Jan 9, 1:20 am)30.42 "Hg (Jan 9, 1:20 am)
Low21 °F (Jan 15, 8:50 am)53% (Jan 13, 1:50 am)29.65 "Hg (Jan 12, 10:50 pm)
Average30 °F82%30.16 "Hg
* Reported Jan 8 2:20 pm — Jan 23 2:20 pm, Lancy, Weather by CustomWeather, © 2017

Note: Actual official high and low records may vary slightly from our data, if they occured in-between our weather recording intervals... More about our weather records

Advertising

Lancy Weather History for the Previous 24 Hours

Scroll right to see more
 ConditionsComfort  
Time TempWeatherWind HumidityBarometerVisibility
2:20 pm
Mon, Jan 23
30 °FBroken clouds.3 mph86%30.15 "Hg4 mi
1:50 pm30 °FIce fog.8 mph86%30.15 "Hg3 mi
1:20 pm30 °FIce fog.2 mph86%30.18 "Hg2 mi
12:50 pm28 °FIce fog.2 mph93%30.18 "Hg2 mi
12:20 pm28 °FIce fog.2 mph93%30.18 "Hg2 mi
11:50 am28 °FIce fog.1 mph93%30.21 "Hg2 mi
11:20 am28 °FIce fog.1 mph93%30.21 "Hg2 mi
10:50 am28 °FIce fog.1 mph93%30.21 "Hg2 mi
10:20 am27 °FIce fog.2 mph100%30.21 "Hg2 mi
9:50 am27 °FIce fog.1 mph93%30.21 "Hg2 mi
9:20 am27 °FIce fog.5 mph93%30.18 "Hg1 mi
8:50 am27 °FIce fog.6 mph93%30.18 "Hg1 mi
8:20 am27 °FIce fog.3 mph100%30.18 "Hg1 mi
7:50 am27 °FIce fog.2 mph100%30.18 "Hg2 mi
7:20 am27 °FIce fog.1 mph100%30.18 "Hg2 mi
6:50 am27 °FIce fog.2 mph100%30.18 "Hg2 mi
6:20 am27 °FIce fog.2 mph100%30.18 "Hg2 mi
5:50 am27 °FIce fog.2 mph100%30.18 "Hg2 mi
5:20 am27 °FIce fog.3 mph100%30.18 "Hg2 mi
4:50 am27 °FIce fog.1 mph100%30.18 "Hg2 mi
4:20 am27 °FIce fog.2 mph100%30.21 "Hg2 mi
3:50 am28 °FIce fog.2 mph93%30.21 "Hg2 mi
3:20 am28 °FIce fog.2 mph93%30.21 "Hg2 mi
2:50 am28 °FIce fog.1 mph93%30.21 "Hg2 mi
2:20 am28 °FIce fog.2 mph93%30.21 "Hg2 mi
1:50 am28 °FIce fog.1 mph93%30.21 "Hg2 mi
1:20 am28 °FIce fog.1 mph93%30.21 "Hg2 mi
12:50 am28 °FIce fog.1 mph93%30.21 "Hg2 mi
12:20 am28 °FIce fog.2 mph93%30.21 "Hg2 mi
11:50 pm
Sun, Jan 22
28 °FIce fog.1 mph93%30.21 "Hg2 mi
11:20 pm28 °FIce fog.2 mph93%30.21 "Hg2 mi
10:50 pm28 °FIce fog.2 mph93%30.21 "Hg3 mi
10:20 pm28 °FIce fog.2 mph93%30.21 "Hg3 mi
9:50 pm28 °FIce fog.1 mph86%30.21 "Hg3 mi
9:20 pm28 °FIce fog.1 mph86%30.21 "Hg3 mi
8:50 pm28 °FIce fog.2 mph86%30.21 "Hg3 mi
8:20 pm28 °FIce fog.1 mph86%30.21 "Hg3 mi
7:50 pm28 °FIce fog.1 mph86%30.21 "Hg3 mi
7:20 pm28 °FIce fog.5 mph86%30.21 "Hg3 mi
6:50 pm28 °FIce fog.2 mph86%30.21 "Hg3 mi
6:20 pm28 °FIce fog.1 mph86%30.21 "Hg3 mi
5:50 pm28 °FIce fog.1 mph86%30.21 "Hg3 mi
5:20 pm28 °FIce fog.1 mph86%30.18 "Hg3 mi
4:50 pm28 °FIce fog.1 mph86%30.21 "Hg3 mi
4:20 pm28 °FIce fog.1 mph86%30.18 "Hg3 mi
3:50 pm28 °FIce fog.5 mph86%30.18 "Hg3 mi
3:20 pm28 °FIce fog.2 mph86%30.18 "Hg3 mi
Weather by CustomWeather, © 2017

See weather overviewHow to use our weather pages